Dewpoint
-6 -4 -3 -3 -2 -2 -2 -2 -3 -4 -7 -11 -13 -11 -10 -11 -7 -9 -11 -12 -13 -5 -9 -11 -11 -8 -4 -4 -4 -7 -6 -6 0 3 2 -0 -5 3 6 7 6 6 10 10 10
-4 -3 -2 -2 -2 -1 -1 -1 -2 -4 -7 -11 -11 -10 -9 -7 -7 -9 -14 -14 -14 -6 -6 -9 -6 -3 -3 -3 -4 -6 -5 -7 -8 -1 3 3 -2 2 6 6 6 7 11 11 11
-3 -2 -2 -2 -1 -1 -1 -1 -2 -4 -7 -10 -10 -9 -6 -6 -6 -14 -15 -9 -9 -8 -4 -5 -6 -5 -3 -4 -5 -7 -6 -11 -11 1 1 -5 -2 -1 6 6 6 9 11 13 11
-2 -1 -1 -1 -1 -0 -0 -1 -3 -5 -8 -10 -9 -6 -5 -5 -2 -5 -5 -3 -4 -2 -4 -4 -5 -4 -3 -4 -5 -8 -10 -12 -14 -3 -5 -7 -6 2 4 2 4 3 7 11 7
-1 -1 -2 -2 -1 -0 -1 -2 -4 -6 -8 -9 -7 -5 -4 -3 -7 -4 -7 -6 -4 -4 -5 -6 -6 -6 -4 -4 -7 -8 -12 -14 -14 -8 -11 -10 -11 -0 -4 2 5 7 7 8 7
-1 -2 -3 -2 -1 -0 -2 -3 -6 -8 -8 -8 -5 -4 -3 -0 -5 -4 -6 -6 -6 -7 -6 -5 -9 -10 -4 -8 -9 -10 -16 -15 -12 -15 -15 -15 -13 -12 -9 3 5 6 6 6 6
-2 -1 -3 -2 -1 -1 -3 -5 -7 -8 -8 -5 -4 -3 -3 -7 -5 -6 -7 -8 -7 -7 -6 -6 -7 -7 -5 -8 -12 -16 -15 -14 -14 -12 -12 -11 -10 -11 -3 6 5 6 7 8 8
0 0 -2 -2 -2 -3 -5 -7 -7 -7 -5 -4 -2 -2 -7 -8 -7 -6 -8 -9 -9 -8 -8 -7 -5 -5 -4 -11 -11 -11 -11 -10 -13 -10 -9 -14 -13 -9 5 5 5 5 5 5 6
1 0 -2 -3 -3 -5 -6 -7 -6 -5 -4 -2 -1 -1 -8 -8 -6 -8 -9 -9 -8 -7 -6 -6 -6 -6 -12 -9 -9 -9 -8 -9 -8 -9 -9 -11 -6 -1 1 6 6 6 6 6 5
1 -0 -3 -3 -4 -5 -6 -5 -4 -3 -2 -0 1 -1 -11 -7 -7 -9 -10 -9 -6 -6 -6 -7 -7 -7 -6 -11 -7 -9 -8 -8 -8 -8 -3 -4 4 4 1 5 5 6 6 6 6
1 -1 -3 -4 -5 -5 -5 -3 -0 1 0 -7 -6 -6 -6 -5 -8 -8 -10 -8 -6 -6 -4 -5 -4 -5 -6 -8 -11 -8 -7 -7 -7 -6 2 4 4 4 6 5 5 5 5 6 6
0 -2 -5 -5 -5 -5 -4 2 6 3 3 -7 -8 -6 -5 -5 -6 -9 -9 -6 -6 -5 -6 -4 -4 -6 -3 -3 -3 -4 -3 -3 -3 -2 2 3 3 2 3 5 5 6 7 7 6
-0 -3 -5 -5 -5 -4 -1 1 4 4 3 -3 -4 -5 -5 -7 -7 -9 -7 -6 -6 -5 -4 -3 -5 -4 -3 -2 -1 -0 -2 -2 -2 1 1 2 3 2 2 5 5 6 7 7 7
-0 -4 -3 -5 -3 -4 -3 3 5 4 -3 -4 -7 -8 -6 -6 -6 -6 -6 -6 -4 -4 -3 -1 -2 -2 -2 -2 -1 -0 -1 -3 0 1 3 -0 6 2 3 5 4 5 5 5 5
-1 -4 -3 -4 -2 -2 5 2 2 4 -1 -7 -6 -7 -5 -5 -7 -5 -3 -4 -4 -3 -3 -0 -1 -1 -1 -2 -2 -0 -1 -2 -2 -1 -1 1 4 2 4 5 5 4 4 4 3
-1 -3 -2 2 3 4 1 -2 0 4 1 -4 -5 -6 -5 -4 -5 -4 -3 -4 -3 -1 -1 -1 -2 -2 -2 -2 -3 -2 0 1 2 1 3 1 2 3 5 4 4 4 4 3 3
-0 -2 -2 3 5 0 -3 -2 2 5 -2 -3 -4 -6 -4 -2 -1 -2 -1 -1 -1 1 1 -1 -1 -3 -2 -0 -2 1 1 4 4 4 5 2 3 2 2 2 3 4 4 3 3
2 -0 -2 5 4 -0 -2 -2 2 2 0 -5 -3 -4 -1 -1 -1 -1 -1 -0 -2 -0 2 2 2 -2 -4 -2 -0 0 1 4 4 5 4 2 5 3 0 0 2 3 3 3 3
1 1 6 3 1 -1 -3 1 3 2 -2 -2 -2 -1 -0 -1 -1 -0 -0 -1 -0 -1 2 2 1 -2 -3 -3 -1 0 0 -0 4 2 4 3 2 1 2 2 2 2 3 3 3
1 5 2 -2 -2 -2 2 3 5 3 -2 -3 -1 -1 0 -0 0 1 1 1 1 0 -1 1 0 -1 -3 -1 -2 -2 -1 1 2 2 3 3 4 4 3 3 2 2 2 3 3
5 2 1 -2 -3 -4 1 3 5 3 -1 -3 -1 -0 -1 -1 1 2 2 2 2 2 0 -0 -1 -1 -1 0 0 1 1 1 1 2 2 3 4 0 2 2 1 1 2 2 3
4 -1 2 -1 -3 2 2 4 4 -1 -1 0 -1 -1 -1 2 3 3 3 2 1 2 -0 0 1 2 0 -1 0 -1 0 -1 0 0 2 1 1 -2 0 -0 0 2 2 2 2
-0 7 5 -1 -1 0 -0 3 2 -2 -0 0 1 1 2 4 4 4 4 1 -2 0 1 -1 1 4 2 -0 -2 -0 2 1 -0 1 3 2 1 1 2 2 2 2 2 2 1
0 6 7 4 -4 -2 -1 1 2 0 0 0 1 1 3 4 4 5 4 2 -0 1 2 -0 1 0 2 0 -0 -1 1 0 -1 1 1 2 -2 2 2 2 2 2 2 1 1
1 4 5 4 3 0 -1 2 2 1 0 -0 1 1 3 4 4 5 4 2 1 2 3 -1 1 1 2 2 0 -1 -2 2 1 -0 1 -0 -0 -1 2 2 2 2 2 1 1
4 1 1 1 3 4 3 3 2 1 1 1 1 3 1 3 2 4 2 0 -1 4 3 -0 1 -0 3 2 2 1 -1 -1 0 -0 1 1 1 0 1 1 2 2 1 1 1
5 3 1 2 2 4 4 4 3 2 3 2 1 2 2 3 3 2 1 2 2 3 2 -0 1 -3 -4 1 -1 -3 -2 -1 -1 -1 -1 2 -1 2 3 2 2 2 2 2 1
Wind_Speed
23 23 23 24 24 23 23 21 19 16 15 14 13 12 12 12 13 16 20 10 5 8 8 8 10 6 6 4 4 2 4 1 4 7 4 18 2 6 4 15 4 2 10 26 25
23 23 23 24 23 22 22 20 18 15 14 13 11 10 9 11 14 19 13 9 10 9 9 9 7 6 4 4 5 4 3 7 5 7 6 30 13 10 6 10 4 8 13 30 28
23 23 22 23 22 21 20 18 16 14 13 11 9 7 6 9 15 4 2 15 14 10 8 9 6 5 4 3 5 4 5 4 6 24 19 10 11 7 16 1 11 28 33 32 31
21 21 22 21 21 19 17 16 14 13 11 8 7 5 5 7 2 4 4 7 10 9 9 10 6 4 3 3 5 1 10 8 17 26 12 12 12 6 13 5 21 23 31 34 33
19 20 20 19 19 17 16 13 12 10 7 7 5 4 5 6 7 6 2 6 10 13 14 15 14 8 5 6 7 5 5 1 6 14 11 17 7 6 7 5 23 30 32 34 32
17 17 18 17 16 14 13 10 9 6 7 6 5 4 4 4 2 1 4 4 10 13 17 18 10 14 5 5 5 8 3 4 3 15 11 9 5 5 4 18 25 31 31 31 29
15 15 15 15 13 11 10 7 5 5 6 6 4 6 9 11 1 10 6 5 10 13 14 16 19 11 6 1 3 8 6 5 6 3 4 13 4 1 6 24 28 33 32 29 28
14 13 13 12 9 7 6 5 5 6 7 4 4 6 8 3 8 6 6 6 6 8 10 10 10 16 9 5 4 6 5 4 3 2 4 5 5 8 12 27 24 25 24 23 24
13 11 11 8 6 5 5 6 7 6 4 3 4 4 8 3 7 5 5 4 5 3 3 4 9 7 8 5 5 6 2 2 2 2 3 4 2 11 7 19 14 15 16 15 18
12 9 8 7 6 7 8 8 6 4 5 3 4 2 6 1 6 5 4 4 1 2 3 4 2 4 4 5 4 5 3 0 3 2 11 8 5 7 7 14 10 11 11 11 13
10 7 6 7 9 11 12 8 2 2 10 7 2 3 7 7 5 4 3 3 3 5 2 5 8 3 3 4 4 4 3 3 2 3 8 4 6 8 14 15 14 13 13 11 10
9 6 9 11 13 14 12 4 1 1 5 12 15 15 12 7 2 4 1 1 4 2 1 7 4 2 2 4 5 5 5 3 4 5 8 8 9 7 13 7 11 18 19 19 19
8 9 13 14 14 14 10 3 2 5 2 2 3 5 1 7 3 4 2 2 2 3 5 6 2 2 2 5 6 4 5 2 6 7 6 6 6 6 6 11 14 21 24 23 22
10 13 15 15 11 9 6 1 2 2 4 5 1 1 2 5 4 4 2 2 4 5 5 5 4 4 5 6 3 2 3 3 8 4 4 3 2 1 1 2 3 13 19 19 21
13 17 17 17 6 9 3 1 0 0 4 4 2 1 3 4 8 2 5 1 4 4 4 2 2 5 6 1 3 2 5 5 3 5 5 3 5 3 4 4 6 10 15 20 22
17 20 19 12 9 6 0 1 3 6 3 2 2 1 3 3 3 2 5 9 6 6 7 3 3 4 0 3 2 3 5 7 5 3 2 3 5 4 7 8 5 10 17 21 20
19 21 20 11 9 5 3 3 5 4 1 2 3 2 4 5 6 5 5 6 3 5 4 6 4 5 2 3 3 6 6 3 4 3 4 2 3 6 11 7 12 18 21 19 18
20 20 18 12 9 5 3 5 2 3 5 1 3 3 4 3 3 5 3 3 5 5 3 4 5 3 4 2 3 2 5 5 5 3 3 3 4 4 6 19 28 25 20 18 19
21 21 16 13 10 7 3 4 6 6 3 5 4 4 2 2 5 5 3 2 2 3 5 4 1 3 1 1 3 2 2 3 6 2 2 3 4 4 4 6 17 22 18 19 19
23 20 16 14 11 8 5 4 4 4 2 3 4 3 3 3 4 3 1 2 1 2 2 5 3 2 3 2 6 2 5 3 3 2 2 3 4 4 5 8 8 12 20 20 21
22 11 17 14 11 6 4 5 5 7 4 3 5 4 2 4 3 2 1 1 1 3 4 3 4 4 1 3 1 2 2 6 5 3 4 1 5 5 10 11 10 14 23 26 27
16 3 18 16 4 1 4 5 4 3 1 2 4 3 4 3 4 3 4 1 2 1 3 1 5 2 2 2 3 2 3 4 4 3 1 3 5 3 8 13 16 19 24 25 26
13 5 16 18 4 2 2 2 4 3 2 2 3 3 3 4 5 2 3 0 1 2 5 4 2 3 6 6 4 2 3 4 6 3 4 4 5 3 7 10 13 22 24 23 22
13 2 4 7 4 8 4 3 3 1 1 4 4 5 4 3 5 5 3 2 2 3 6 4 3 5 6 4 2 3 4 4 5 3 3 6 4 5 6 7 13 20 23 21 18
11 4 7 3 2 5 5 2 2 1 2 4 4 3 5 4 3 3 2 2 4 2 4 4 4 1 2 3 2 2 4 6 6 5 5 5 7 6 11 11 21 25 23 20 17
10 6 5 3 19 7 4 7 5 2 3 1 5 2 3 5 6 8 6 3 4 4 3 3 3 0 1 4 5 3 6 6 4 4 7 4 8 6 6 17 20 27 24 20 16
10 9 11 1 4 6 6 6 7 5 4 1 6 5 4 1 6 14 11 12 6 5 3 3 5 3 4 3 5 6 9 9 5 5 6 6 8 7 5 16 26 27 23 20 15
Wind_Direction
297 301 304 302 302 301 294 292 290 284 278 274 274 284 287 286 286 280 266 251 212 179 178 177 187 205 212 207 215 185 64 138 188 152 136 50 64 166 126 140 90 204 167 160 158
296 299 303 301 300 296 292 288 283 279 272 268 277 284 291 296 294 281 290 240 195 187 205 190 189 194 193 204 206 102 107 203 201 147 169 169 226 166 137 130 55 138 150 157 162
297 301 301 300 297 293 288 282 279 274 266 273 277 280 291 305 309 335 130 172 184 205 207 221 213 208 222 198 202 156 187 176 200 171 190 186 145 174 136 235 188 152 156 167 169
296 299 299 297 293 288 283 276 274 267 267 267 266 262 279 301 270 30 175 186 188 196 201 198 205 204 209 198 204 195 229 205 189 197 197 139 140 132 166 212 181 163 163 169 174
295 298 298 295 288 284 278 272 268 266 264 253 233 241 282 278 263 36 98 193 209 214 213 203 199 200 198 195 163 195 307 271 177 178 172 147 157 191 205 164 169 166 168 177 179
294 298 298 293 282 277 272 265 261 252 244 221 218 254 262 263 186 40 2 236 224 223 226 214 219 215 235 199 180 194 130 50 89 146 140 126 145 155 218 167 167 170 179 182 187
291 298 300 289 280 273 266 260 241 221 215 205 231 258 254 230 212 313 316 278 253 255 251 241 227 193 223 191 151 123 77 17 25 81 110 111 34 293 175 168 168 180 185 188 192
290 295 295 282 274 260 244 224 206 178 192 213 252 262 256 273 269 266 264 289 297 265 255 268 256 234 254 129 44 62 53 101 285 45 50 105 255 8 173 168 171 184 187 197 198
286 290 283 271 248 223 199 176 172 171 203 234 238 232 268 281 253 230 258 312 311 232 275 229 158 185 136 107 47 20 165 129 351 100 107 77 13 346 191 177 160 174 184 199 205
279 279 270 241 205 179 162 161 162 196 215 208 220 242 267 317 229 244 267 310 175 177 161 141 112 70 34 70 180 201 161 41 192 11 43 62 8 338 55 162 126 138 162 179 198
269 261 234 201 180 164 157 153 191 243 217 214 202 242 303 345 214 223 277 325 55 70 53 27 71 110 210 198 163 169 133 167 285 93 76 65 61 19 55 94 107 120 137 157 172
251 221 193 170 168 169 176 181 127 2 285 247 255 266 281 289 299 229 250 114 87 112 272 34 87 237 166 92 110 83 99 88 80 23 89 91 56 38 37 54 100 119 117 117 113
224 185 177 165 174 184 175 123 314 313 243 265 253 253 316 190 199 152 197 135 108 80 43 122 114 53 86 50 73 52 105 261 134 94 83 94 41 28 25 80 111 123 122 121 117
203 177 175 160 184 201 223 172 341 333 67 294 301 328 177 164 55 135 158 185 40 126 116 86 10 123 64 67 92 81 86 104 122 83 154 41 195 94 76 63 43 141 138 132 127
192 172 170 164 179 190 147 343 331 161 80 249 250 184 123 148 144 78 51 87 103 102 97 267 50 69 62 74 70 121 77 116 112 91 101 12 91 260 132 216 208 194 161 145 139
186 175 177 170 186 185 169 85 137 46 255 201 217 143 73 57 49 73 75 73 85 72 40 54 32 54 83 59 55 127 68 49 50 70 47 215 126 235 191 193 181 195 180 162 156
186 181 177 168 176 158 103 145 41 120 295 190 154 93 76 23 32 38 35 25 98 85 25 10 346 333 42 86 41 68 62 9 359 11 220 334 121 234 209 181 184 188 190 178 167
184 180 179 173 171 155 97 57 150 236 214 113 122 83 124 141 25 19 68 50 24 74 104 125 339 7 348 98 164 84 143 153 202 196 232 0 238 250 231 187 187 187 184 175 172
182 178 182 170 162 157 149 72 211 215 204 146 63 96 102 80 114 80 61 103 24 19 128 141 290 319 42 61 121 172 58 160 109 8 69 253 290 325 72 133 169 193 193 185 186
178 176 170 157 150 151 82 210 240 225 271 123 140 130 139 149 86 79 93 321 120 50 185 186 107 39 313 101 44 122 143 64 9 138 284 299 271 233 189 189 176 186 195 185 178
176 167 170 158 148 143 148 221 274 255 217 133 166 141 140 135 99 84 143 340 358 21 68 111 94 285 15 26 157 24 56 58 106 105 159 269 263 224 199 190 180 192 195 186 180
181 117 171 164 87 42 149 191 299 282 103 107 106 103 137 120 101 114 175 215 6 265 105 42 122 131 191 281 252 183 129 123 111 202 72 145 274 330 247 204 181 189 187 184 178
176 112 172 178 140 284 261 281 256 309 4 75 108 106 75 123 101 137 145 136 20 95 153 179 20 59 354 353 345 163 109 96 105 89 196 130 263 360 103 123 175 171 175 168 164
169 101 135 184 166 141 139 259 269 262 67 77 116 90 94 68 30 146 131 32 62 92 96 108 91 154 183 198 206 174 158 145 116 120 185 228 258 225 194 170 158 169 168 166 171
173 184 163 196 252 136 141 186 202 193 73 50 46 98 143 114 71 107 116 106 53 95 50 83 125 98 74 18 330 273 201 174 189 186 177 245 214 234 210 195 182 178 173 174 183
163 138 149 149 159 118 139 206 194 154 53 26 115 91 74 146 176 192 140 177 185 51 71 10 164 26 205 0 6 290 261 221 217 209 258 275 276 209 212 196 183 183 183 191 200
154 161 178 147 114 111 195 178 203 136 37 82 158 105 64 95 105 103 108 98 107 126 109 74 132 97 261 358 338 333 223 200 195 188 165 201 239 163 179 185 188 189 195 205 214
Height
1518 1516 1514 1512 1511 1509 1509 1508 1506 1504 1504 1504 1504 1504 1503 1502 1501 1500 1497 1500 1502 1503 1504 1505 1508 1509 1512 1512 1512 1511 1521 1529 1522 1522 1519 1518 1517 1522 1520 1523 1524 1526 1527 1530 1535
1514 1512 1510 1510 1507 1506 1505 1505 1503 1502 1502 1503 1503 1502 1502 1501 1500 1496 1495 1497 1500 1502 1504 1505 1508 1510 1511 1511 1511 1509 1522 1518 1510 1511 1516 1516 1516 1520 1523 1524 1528 1528 1529 1532 1537
1510 1509 1507 1506 1504 1503 1502 1502 1500 1499 1500 1502 1502 1502 1501 1501 1499 1492 1493 1495 1497 1501 1503 1505 1508 1510 1510 1509 1509 1509 1515 1509 1509 1510 1511 1515 1517 1520 1522 1528 1526 1525 1529 1534 1538
1506 1505 1504 1502 1501 1500 1499 1499 1498 1498 1500 1501 1501 1501 1500 1501 1500 1493 1494 1496 1498 1501 1502 1504 1507 1508 1508 1508 1506 1509 1504 1506 1506 1504 1510 1512 1517 1519 1520 1520 1522 1523 1527 1532 1536
1502 1501 1500 1498 1498 1497 1497 1496 1497 1498 1500 1500 1500 1500 1500 1500 1495 1494 1494 1496 1498 1499 1500 1502 1504 1505 1505 1504 1504 1505 1503 1503 1502 1505 1509 1512 1517 1518 1520 1521 1525 1528 1529 1532 1536
1499 1498 1497 1495 1495 1494 1495 1495 1496 1498 1499 1499 1499 1500 1501 1500 1493 1494 1494 1495 1496 1496 1497 1500 1500 1501 1501 1502 1503 1501 1504 1503 1504 1506 1508 1513 1518 1518 1520 1522 1526 1527 1530 1533 1537
1496 1495 1494 1493 1493 1493 1493 1494 1495 1497 1499 1499 1499 1499 1499 1493 1493 1493 1493 1493 1493 1493 1494 1496 1499 1501 1499 1499 1499 1501 1506 1505 1507 1508 1513 1512 1519 1521 1521 1524 1525 1528 1533 1536 1540
1494 1491 1492 1492 1491 1492 1493 1494 1495 1496 1498 1499 1499 1498 1494 1492 1492 1492 1492 1492 1491 1491 1492 1494 1497 1501 1501 1501 1502 1506 1513 1522 1510 1508 1513 1514 1532 1525 1525 1523 1529 1532 1535 1538 1541
1492 1489 1490 1490 1490 1491 1493 1494 1495 1497 1498 1498 1498 1498 1493 1492 1492 1492 1491 1491 1490 1490 1491 1493 1495 1498 1500 1505 1514 1517 1525 1516 1513 1511 1513 1518 1529 1531 1528 1528 1530 1532 1536 1539 1541
1489 1487 1488 1489 1490 1491 1492 1494 1495 1496 1497 1498 1497 1500 1491 1491 1491 1492 1491 1491 1490 1489 1491 1492 1492 1497 1502 1508 1530 1523 1521 1519 1517 1515 1521 1529 1539 1534 1531 1531 1533 1534 1536 1538 1540
1487 1486 1487 1489 1490 1491 1493 1495 1498 1499 1495 1491 1492 1489 1488 1490 1490 1492 1491 1490 1490 1490 1494 1493 1503 1514 1508 1506 1507 1510 1512 1518 1518 1517 1530 1543 1542 1540 1536 1535 1535 1535 1536 1538 1541
1486 1485 1487 1488 1490 1491 1493 1493 1493 1495 1491 1489 1489 1488 1487 1489 1490 1491 1492 1492 1492 1497 1496 1502 1510 1504 1504 1504 1506 1509 1518 1522 1523 1523 1529 1540 1546 1543 1540 1540 1540 1539 1539 1540 1541
1485 1484 1486 1488 1490 1492 1492 1492 1492 1492 1491 1487 1486 1486 1486 1488 1489 1491 1492 1492 1493 1496 1498 1507 1506 1504 1504 1507 1509 1515 1520 1519 1525 1527 1531 1535 1548 1549 1546 1544 1543 1542 1542 1543 1544
1483 1483 1486 1488 1494 1493 1492 1491 1492 1491 1501 1492 1486 1486 1486 1486 1489 1490 1491 1492 1493 1502 1501 1506 1505 1507 1507 1510 1512 1517 1515 1517 1526 1528 1544 1535 1564 1550 1549 1549 1548 1546 1545 1545 1545
1481 1483 1486 1489 1490 1491 1492 1490 1491 1491 1532 1491 1486 1486 1486 1488 1491 1492 1490 1489 1494 1498 1503 1511 1508 1509 1512 1511 1510 1517 1516 1520 1524 1533 1538 1541 1556 1553 1551 1552 1550 1548 1547 1547 1547
1480 1482 1485 1487 1489 1490 1490 1490 1491 1511 1522 1490 1485 1485 1486 1488 1489 1490 1490 1491 1495 1501 1502 1507 1506 1508 1510 1510 1511 1512 1518 1526 1532 1539 1557 1539 1548 1555 1551 1542 1545 1546 1547 1548 1548
1479 1481 1484 1486 1489 1489 1489 1490 1512 1525 1491 1492 1488 1486 1488 1493 1494 1493 1498 1502 1506 1516 1520 1514 1514 1511 1511 1513 1514 1518 1529 1556 1556 1569 1563 1541 1546 1539 1535 1535 1538 1541 1545 1548 1549
1477 1480 1482 1485 1487 1488 1489 1494 1509 1497 1493 1485 1486 1489 1495 1494 1499 1500 1503 1510 1506 1508 1523 1528 1538 1516 1513 1514 1518 1522 1528 1552 1556 1571 1553 1541 1546 1536 1529 1532 1535 1540 1544 1547 1549
1475 1478 1481 1483 1485 1487 1489 1518 1507 1497 1485 1487 1488 1494 1496 1495 1498 1503 1509 1512 1510 1508 1517 1526 1524 1513 1513 1513 1515 1522 1535 1531 1553 1564 1562 1554 1538 1531 1529 1533 1535 1538 1542 1545 1547
1473 1477 1479 1481 1483 1486 1492 1504 1494 1486 1483 1484 1494 1493 1500 1498 1503 1506 1508 1510 1510 1509 1508 1515 1526 1517 1514 1514 1517 1518 1525 1540 1552 1558 1565 1556 1546 1544 1534 1534 1534 1536 1538 1543 1545
1472 1474 1476 1479 1482 1484 1502 1498 1489 1483 1482 1483 1490 1494 1496 1500 1503 1508 1511 1511 1509 1508 1507 1512 1521 1527 1518 1523 1525 1526 1530 1539 1546 1560 1569 1577 1552 1530 1527 1527 1530 1533 1536 1539 1541
1468 1471 1473 1477 1483 1489 1493 1489 1486 1481 1481 1481 1483 1488 1494 1499 1505 1508 1510 1509 1509 1509 1512 1515 1526 1542 1525 1520 1520 1520 1525 1534 1558 1550 1573 1578 1552 1526 1525 1526 1528 1531 1534 1537 1540
1465 1468 1472 1475 1492 1497 1487 1486 1485 1482 1481 1481 1485 1486 1492 1500 1509 1509 1510 1510 1509 1510 1513 1514 1531 1548 1537 1529 1522 1521 1526 1534 1541 1553 1554 1571 1548 1526 1524 1525 1527 1530 1534 1538 1540
1463 1471 1472 1474 1477 1480 1485 1487 1486 1482 1482 1482 1485 1486 1493 1501 1503 1509 1510 1510 1510 1511 1511 1513 1527 1531 1542 1529 1529 1524 1524 1530 1533 1559 1552 1551 1530 1527 1527 1526 1527 1530 1534 1537 1539
1458 1462 1464 1478 1479 1477 1481 1485 1485 1484 1481 1482 1486 1486 1492 1502 1504 1508 1509 1510 1511 1512 1513 1515 1527 1528 1531 1531 1527 1523 1522 1528 1531 1532 1538 1529 1531 1522 1521 1522 1524 1528 1532 1535 1538
1454 1458 1464 1467 1470 1476 1481 1483 1484 1483 1484 1485 1488 1491 1491 1500 1498 1507 1506 1508 1509 1513 1516 1520 1535 1533 1530 1534 1535 1528 1525 1525 1527 1525 1529 1525 1524 1515 1516 1520 1524 1526 1529 1532 1535
1452 1455 1459 1470 1471 1476 1481 1480 1482 1482 1486 1485 1486 1491 1495 1496 1496 1497 1501 1504 1506 1511 1520 1527 1537 1539 1544 1543 1540 1541 1520 1519 1518 1517 1518 1526 1513 1514 1516 1515 1517 1522 1526 1528 1531